#timestamp,LO_Frequency,Hit,StdDev 
1555891215.3,286046993.6,N
1555891235.2,286046994.7,N
1555891255.9,286046992.1,N
1555891275.7,286046994.9,N
1555891295.6,286046998.5,N
1555891315.4,286047002.9,N
1555891335.3,286047005.8,N
1555891355.1,286047003.4,N
1555891356.0,286047003.4,N
1555891375.8,286047007.2,N
1555891395.7,286047008.2,N
1555891415.5,286047011.7,N
1555891435.3,286047008.2,N
1555891455.2,286047007.0,N
1555891475.0,286047006.1,N
1555891475.9,286047006.1,N
1555891495.8,286047005.0,N
1555891515.6,286047003.4,N
1555891535.4,286047003.3,N
1555891555.3,286047009.9,N
1555891575.1,286047008.1,N
1555891595.8,286047008.2,N
1555891615.7,286047011.5,N
1555891635.5,286047011.5,N
1555891655.4,286047010.4,N
1555891675.2,286047007.8,N
1555891695.0,286047006.6,N
1555891695.9,286047006.6,N
1555891715.8,286047009.6,N
1555891735.6,286047012.9,N
1555891755.5,286047014.8,N
1555891775.3,286047014.3,N
1555891795.1,286047018.4,Y
1555891815.9,286047013.3,P
1555891835.7,286047013.6,P
1555891855.5,286047016.8,P
1555891875.4,286047017.9,Y
1555891895.2,286047001.3,P
1555891915.1,286047005.3,N
1555891916.0,286047005.3,N
1555891935.8,286047008.0,N
1555891955.6,286047008.6,N
1555891975.5,286047005.0,N
1555891995.3,286047001.6,N
1555892015.1,286046997.3,N
1555892035.9,286046995.1,N
1555892055.7,286046993.1,N
1555892075.6,286046987.1,N
1555892095.4,286046985.0,N
1555892115.2,286046982.1,N
1555892135.1,286046984.1,N
1555892136.0,286046984.1,N
1555892155.8,286046984.5,N
1555892175.7,286046984.4,N
1555892195.5,286046982.6,N
1555892215.3,286046981.8,N
1555892235.2,286046984.5,N
1555892255.9,286046980.4,N
1555892275.7,286046977.1,N
1555892295.6,286046975.9,N
1555892315.4,286046980.0,N
1555892335.3,286046974.2,N
1555892355.1,286046977.7,N
1555892356.0,286046977.7,N
1555892375.8,286046982.6,N
1555892395.7,286046985.9,N
1555892415.5,286046990.4,N
1555892435.3,286046995.8,N
1555892455.2,286046999.4,N
1555892475.0,286047000.4,N
1555892475.9,286047000.4,N
1555892495.8,286046999.1,N
1555892515.6,286046997.7,N
1555892535.4,286046994.5,N
1555892555.3,286046993.5,N
1555892575.1,286047000.4,N
1555892595.9,286046999.7,N
1555892615.7,286047001.6,N
1555892635.5,286047004.5,N
1555892655.4,286047006.9,N
1555892675.2,286047004.5,N
1555892695.0,286047007.0,N
1555892695.9,286047007.0,N
1555892715.8,286047009.1,N
1555892735.6,286047011.3,N
1555892755.5,286047011.0,N
1555892775.3,286047010.9,N
1555892795.1,286047011.4,N
1555892815.9,286047014.7,N
1555892835.7,286047014.9,N
1555892855.5,286047020.3,N
1555892875.4,286047024.4,N
1555892895.2,286047020.9,N
1555892915.1,286047026.7,N
1555892916.0,286047026.7,N
1555892935.8,286047031.5,Y
1555892955.6,286047025.1,P
1555892975.5,286047023.8,N
1555892995.3,286047026.5,P
1555893015.2,286047027.5,Y
1555893035.9,286047010.2,P
1555893055.7,286047008.0,N
1555893075.6,286047008.6,N
1555893095.4,286047013.5,N
1555893115.2,286047013.4,N
1555893135.1,286047015.6,Y
1555893136.0,286047015.6,P
1555893155.8,286047005.4,P
1555893175.7,286047000.3,N
1555893195.5,286046997.6,N
1555893215.3,286046996.7,N
1555893235.2,286047000.6,N
1555893255.0,286047007.6,N
1555893255.9,286047007.6,N
1555893275.8,286047002.7,N
1555893295.6,286047003.5,N
1555893315.4,286046999.7,N
1555893335.3,286047004.4,N
1555893355.1,286047003.7,N
1555893375.8,286047002.1,N
1555893395.7,286047000.2,N
1555893415.5,286047002.0,N
1555893435.4,286047003.5,N
1555893455.2,286047008.9,N
1555893475.0,286047009.9,N
1555893475.9,286047009.9,N
1555893495.8,286047010.1,N
1555893515.6,286047010.1,N
1555893535.4,286047012.7,N
1555893555.3,286047017.0,Y
1555893575.1,286047010.4,P
1555893595.9,286047006.4,N
1555893615.7,286047009.4,P
1555893635.5,286047010.5,Y
1555893655.4,286047002.1,P
1555893675.2,286046999.7,N
1555893695.0,286047002.6,N
1555893696.0,286047002.6,N
1555893715.8,286047002.8,N
1555893735.6,286046996.8,N
1555893755.5,286046997.3,N
1555893775.3,286046993.2,N
1555893795.1,286046990.2,N
1555893815.9,286046994.7,N
1555893835.7,286046993.3,N
1555893855.6,286046999.0,N
1555893875.4,286047000.7,N
1555893895.2,286046999.1,N
1555893915.1,286046999.2,N
1555893916.0,286046999.2,N
1555893935.8,286046997.0,N
1555893955.6,286046997.8,N
1555893975.5,286046995.5,N
1555893995.3,286046991.8,N
1555894015.2,286046991.5,N
1555894035.9,286046988.9,N
1555894055.7,286046990.3,N
1555894075.6,286046994.3,N
1555894095.4,286046993.6,N
1555894115.2,286046989.5,N
1555894135.1,286046987.2,N
1555894136.0,286046987.2,N
1555894155.8,286046994.5,N
1555894175.7,286046999.3,N
1555894195.5,286046999.3,N
1555894215.3,286046998.4,N
1555894235.2,286047003.7,N
1555894255.0,286047005.4,N
1555894255.9,286047005.4,N
1555894275.7,286047005.8,N
1555894295.6,286047007.5,N
1555894315.4,286047007.6,N
1555894335.3,286047005.3,N
1555894355.1,286047008.5,N
1555894356.0,286047008.5,N
1555894375.8,286047009.5,N
1555894395.7,286047008.2,N
1555894415.5,286047007.4,N
1555894435.4,286047004.5,N
1555894455.2,286047003.4,N
1555894475.0,286047004.5,N
1555894475.9,286047004.5,N
1555894495.8,286047000.9,N
1555894515.6,286046996.3,N
1555894535.4,286046995.7,N
1555894555.3,286046997.6,N
1555894575.1,286046995.5,N
1555894595.9,286046993.5,N
1555894615.7,286046997.4,N
1555894635.5,286046996.1,N
1555894655.4,286046996.6,N
1555894675.2,286047011.9,N
1555894695.0,286047008.7,N
1555894695.9,286047008.7,N
1555894715.8,286047007.7,N
1555894735.6,286047008.7,N
1555894755.5,286047009.1,N
1555894775.3,286047009.5,N
1555894795.1,286047009.6,N
